NOAA 16 DEB, 41214

Orbit data source: Space-Track

NOAA 16 DEB, 41214 is space debris in SSO originally from a launch on Thu, 21 Sep 2000 UTC launched from the Air Force Western Test Range (AFWTR). Debris objects in space refer to the collection of defunct objects orbiting the Earth. Examples of debris include non-operational satellites, rocket bodies, and fragments generated from explosions, collisions, or faulty payload assembly.

Loading next visibility...
Identifier
41214, 2000-055DT
Orbit
SSO
Country
Flag of USUS
Related business
Manufacturer
Unknown
Mission
Spacecraft
Bus & Motor
Unknown
Mass
Unknown
Launch date (UTC)
2000-09-21 (25 years ago)
Launch vehicle
Unknown
Launch site
Air Force Western Test Range (AFWTR)
Object type
Payload
Rocket body
Debris
Shape & HBR
Unknown shape, 0.1 m
Radar Cross Section
Small (<0.1 m²)

Expand to show TLE details & history
Last TLE update: 1 day ago

TLE from 1 day ago
0 NOAA 16 DEB
1 41214U 00055DT  25346.27845496  .00012345  00000-0  36299-2 0  9993
2 41214  98.7883 106.7790 0026313 280.9214  78.9015 14.43654851520141
Epoch: 2025-12-12T06:40Z
TLE epoch observation values (Epoch: 2025-12-12T06:40:58.508Z)
Latitude
-0.00002°
Longitude
-74.68715°
Altitude
745.831 km
Speed
7.484 km/s
True Right ascension
07h 07m 06s
True Declination
0° 00' 00"
Sunlit
Object was in full shadow at epoch
Visualization orbit readout
Latitude
Unknown
Longitude
Unknown
Altitude
Unknown
Speed
Unknown
Apparent Right ascension
Unknown
Apparent Declination
Unknown
Sunlit
N/A
Visualization observer readout
Local Sidereal Time
15:16:38
Azimuth
Unknown
Elevation
Unknown
Doppler factor
Unknown
Orbital elements
Apogee altitude
762.319 km
Perigee altitude
724.84 km
Semi-major axis
7,121.716 km
Eccentricity
0.00263
Inclination
98.7883°
RAAN
106.779°
Arg. of periapsis
280.9214°
True anomaly
79.19757°
Mean anomaly
78.9015°
Eccentric anomaly
79.04952°
Mean motion
3.61132 °/min
Orbital period
99.69 mins
BSTAR
0.0036299
Loading maneuver chart data...
Computing Atmospheric mass density...
Loading historical data...
Loading historical data...
Loading historical data...
Loading historical data...
Loading historical data...
Loading historical data...
Loading historical data...

Documentation

Showing up to 5 results
|